TKJ29 LTFJ-EDDL

Flight info

Callsign TKJ29
Flight time N/A
Altitude 36000
Route VADEN1J/06L VADEN DCT BAKLO DCT XANEX DCT BESLI DCT UTEKA DCT KOTUS DCT BABIT DCT SOGMO DCT SASAL DCT DEXIT DCT TESDU DCT AMETU T852 TINSA T854 DOMUX DOMUX1A
Aircraft A320/M-SDE3FGHIRWY/LB1

Departure

Time 2026-05-03 20:20
Airport Istanbul Sabiha Gökçen International Airport (LTFJ)

Arrival

Time N/A
Airport Düsseldorf Airport (EDDL)
Time Latitude Longitude Altitude Speed Heading
2026-05-03 20:15 40.90434 29.31437 321 ft 10 kts 199°
2026-05-03 20:15 40.90365 29.31468 321 ft 11 kts 154°
2026-05-03 20:15 40.90290 29.31497 321 ft 12 kts 194°
2026-05-03 20:15 40.90246 29.31411 321 ft 12 kts 245°
2026-05-03 20:16 40.90210 29.31309 321 ft 13 kts 245°
2026-05-03 20:16 40.90171 29.31203 321 ft 13 kts 243°
2026-05-03 20:16 40.90130 29.31094 321 ft 14 kts 243°
2026-05-03 20:16 40.90088 29.30981 321 ft 14 kts 243°
2026-05-03 20:17 40.90044 29.30865 321 ft 14 kts 244°
2026-05-03 20:17 40.90001 29.30751 321 ft 14 kts 244°
2026-05-03 20:17 40.89955 29.30623 321 ft 20 kts 246°
2026-05-03 20:17 40.89883 29.30413 320 ft 30 kts 246°
2026-05-03 20:18 40.89785 29.30137 320 ft 34 kts 244°
2026-05-03 20:18 40.89682 29.29864 321 ft 33 kts 243°
2026-05-03 20:18 40.89604 29.29654 321 ft 24 kts 243°
2026-05-03 20:18 40.89529 29.29458 321 ft 24 kts 244°
2026-05-03 20:19 40.89464 29.29286 321 ft 15 kts 235°
2026-05-03 20:19 40.89373 29.29265 320 ft 14 kts 158°
2026-05-03 20:19 40.89300 29.29339 321 ft 12 kts 117°
2026-05-03 20:19 40.89324 29.29479 321 ft 28 kts 62°
2026-05-03 20:20 40.89511 29.29983 322 ft 91 kts 64°
2026-05-03 20:20 40.89863 29.30938 321 ft 138 kts 64°
2026-05-03 20:20 40.90302 29.32193 623 ft 151 kts 60°
2026-05-03 20:20 40.90758 29.33450 1201 ft 153 kts 58°
2026-05-03 20:21 40.91222 29.34715 1826 ft 152 kts 56°
2026-05-03 20:21 40.91702 29.36003 2235 ft 162 kts 57°
2026-05-03 20:21 40.92239 29.37399 2535 ft 179 kts 56°
2026-05-03 20:21 40.92832 29.38944 2834 ft 198 kts 58°
2026-05-03 20:22 40.93474 29.40661 3261 ft 215 kts 59°
2026-05-03 20:22 40.94133 29.42463 4034 ft 220 kts 60°
2026-05-03 20:22 40.94811 29.44330 4687 ft 230 kts 61°
2026-05-03 20:22 40.95509 29.46254 5464 ft 234 kts 61°
2026-05-03 20:23 40.96218 29.48206 6247 ft 237 kts 61°
2026-05-03 20:23 40.96940 29.50184 6837 ft 242 kts 62°
2026-05-03 20:23 40.97672 29.52194 6976 ft 242 kts 61°
2026-05-03 20:23 40.98402 29.54200 7001 ft 242 kts 61°
2026-05-03 20:24 40.99137 29.56217 7433 ft 244 kts 61°
2026-05-03 20:24 40.99879 29.58247 8225 ft 246 kts 61°
2026-05-03 20:24 41.00859 29.60054 8904 ft 248 kts 40°
2026-05-03 20:24 41.02383 29.61140 9582 ft 255 kts 16°
2026-05-03 20:25 41.04184 29.61190 10191 ft 269 kts 354°
2026-05-03 20:25 41.05981 29.60117 10366 ft 304 kts 326°
2026-05-03 20:25 41.07374 29.57814 10526 ft 334 kts 307°
2026-05-03 20:25 41.08582 29.55134 10996 ft 343 kts 305°
2026-05-03 20:26 41.09766 29.52358 11581 ft 348 kts 304°
2026-05-03 20:26 41.10951 29.49532 12164 ft 353 kts 303°
2026-05-03 20:26 41.12153 29.46678 12761 ft 357 kts 303°
2026-05-03 20:26 41.13378 29.43797 13352 ft 361 kts 304°
2026-05-03 20:27 41.14628 29.40889 13918 ft 365 kts 304°
2026-05-03 20:27 41.15899 29.37958 14452 ft 368 kts 304°
2026-05-03 20:27 41.17186 29.35001 15007 ft 371 kts 304°
2026-05-03 20:27 41.18481 29.32032 15558 ft 373 kts 304°
2026-05-03 20:28 41.19788 29.29040 16093 ft 376 kts 304°
2026-05-03 20:28 41.21106 29.26027 16624 ft 379 kts 304°
2026-05-03 20:28 41.22427 29.22974 17158 ft 382 kts 304°
2026-05-03 20:28 41.23748 29.19905 17702 ft 385 kts 303°
2026-05-03 20:29 41.25079 29.16804 18250 ft 387 kts 303°
2026-05-03 20:29 41.26419 29.13685 18731 ft 390 kts 303°
2026-05-03 20:29 41.27769 29.10541 19217 ft 393 kts 303°
2026-05-03 20:29 41.29124 29.07377 19714 ft 396 kts 303°
2026-05-03 20:30 41.30491 29.04188 20202 ft 399 kts 303°
2026-05-03 20:30 41.31871 29.00979 20685 ft 401 kts 303°
2026-05-03 20:30 41.33266 28.97741 21140 ft 405 kts 303°
2026-05-03 20:30 41.34668 28.94477 21595 ft 408 kts 303°
2026-05-03 20:31 41.36074 28.91189 22032 ft 411 kts 302°
2026-05-03 20:31 41.37489 28.87870 22460 ft 414 kts 302°
2026-05-03 20:31 41.38917 28.84521 22895 ft 417 kts 302°
2026-05-03 20:31 41.40351 28.81156 23287 ft 420 kts 302°
2026-05-03 20:32 41.41801 28.77760 23669 ft 423 kts 301°
2026-05-03 20:32 41.43260 28.74335 23989 ft 427 kts 301°
2026-05-03 20:32 41.44728 28.70879 24274 ft 431 kts 301°
2026-05-03 20:32 41.46211 28.67379 24573 ft 435 kts 301°
2026-05-03 20:33 41.47701 28.63854 24872 ft 438 kts 300°
2026-05-03 20:33 41.49203 28.60300 25164 ft 442 kts 300°
2026-05-03 20:33 41.50717 28.56722 25478 ft 445 kts 300°
2026-05-03 20:33 41.52243 28.53115 25788 ft 447 kts 300°
2026-05-03 20:34 41.53775 28.49491 26100 ft 450 kts 300°
2026-05-03 20:34 41.55299 28.45886 26410 ft 452 kts 299°
2026-05-03 20:34 41.56845 28.42220 26713 ft 455 kts 299°
2026-05-03 20:34 41.58398 28.38528 26995 ft 458 kts 299°
2026-05-03 20:35 41.59962 28.34805 27268 ft 461 kts 298°
2026-05-03 20:35 41.61533 28.31057 27533 ft 464 kts 298°
2026-05-03 20:35 41.63115 28.27274 27784 ft 467 kts 298°
2026-05-03 20:35 41.64705 28.23464 28063 ft 470 kts 298°
2026-05-03 20:36 41.66299 28.19636 28337 ft 473 kts 298°
2026-05-03 20:36 41.67907 28.15778 28598 ft 476 kts 298°
2026-05-03 20:36 41.69526 28.11897 28886 ft 478 kts 297°
2026-05-03 20:36 41.71146 28.08015 29277 ft 478 kts 297°
2026-05-03 20:37 41.72765 28.04125 29641 ft 479 kts 297°
2026-05-03 20:37 41.74384 28.00228 30012 ft 479 kts 297°
2026-05-03 20:37 41.76004 27.96327 30354 ft 479 kts 297°
2026-05-03 20:37 41.77616 27.92437 30764 ft 477 kts 297°
2026-05-03 20:38 41.79217 27.88563 31242 ft 473 kts 297°
2026-05-03 20:38 41.80801 27.84719 31737 ft 469 kts 297°
2026-05-03 20:38 41.82370 27.80902 32234 ft 465 kts 298°
2026-05-03 20:38 41.83927 27.77116 32716 ft 462 kts 298°
2026-05-03 20:39 41.85475 27.73361 33188 ft 459 kts 298°
2026-05-03 20:39 41.87014 27.69625 33651 ft 456 kts 298°
2026-05-03 20:39 41.88542 27.65917 34072 ft 453 kts 299°
2026-05-03 20:39 41.90059 27.62223 34398 ft 451 kts 299°
2026-05-03 20:40 41.91568 27.58528 34666 ft 451 kts 298°
2026-05-03 20:40 41.93071 27.54836 34913 ft 450 kts 298°
2026-05-03 20:40 41.94572 27.51147 35153 ft 450 kts 298°
2026-05-03 20:40 41.96073 27.47463 35389 ft 450 kts 299°
2026-05-03 20:41 41.97574 27.43777 35623 ft 449 kts 299°
2026-05-03 20:41 41.99071 27.40094 35835 ft 449 kts 299°
2026-05-03 20:41 42.00567 27.36408 36034 ft 449 kts 299°
2026-05-03 20:42 42.03584 27.28977 36108 ft 457 kts 299°
2026-05-03 20:42 42.06778 27.21610 36107 ft 459 kts 310°
2026-05-03 20:43 42.11006 27.15159 36109 ft 460 kts 312°
2026-05-03 20:43 42.15253 27.08707 36113 ft 460 kts 312°
2026-05-03 20:44 42.19512 27.02260 36118 ft 460 kts 312°
2026-05-03 20:44 42.23779 26.95812 36124 ft 461 kts 312°
2026-05-03 20:45 42.28042 26.89353 36129 ft 461 kts 312°
2026-05-03 20:45 42.32307 26.82870 36131 ft 461 kts 312°
2026-05-03 20:46 42.36537 26.76425 36136 ft 461 kts 312°
2026-05-03 20:46 42.40782 26.69944 36142 ft 460 kts 312°
2026-05-03 20:47 42.45024 26.63447 36147 ft 459 kts 312°
2026-05-03 20:47 42.49259 26.56948 36148 ft 459 kts 312°
2026-05-03 20:48 42.53453 26.50444 36153 ft 458 kts 308°
2026-05-03 20:48 42.56585 26.42969 36199 ft 457 kts 291°
2026-05-03 20:49 42.59086 26.35139 36100 ft 449 kts 304°
2026-05-03 20:49 42.62508 26.28070 36152 ft 453 kts 303°
2026-05-03 20:50 42.65712 26.20703 36177 ft 453 kts 300°
2026-05-03 20:50 42.68639 26.13114 36191 ft 453 kts 298°
2026-05-03 20:51 42.71511 26.05496 36208 ft 453 kts 299°
2026-05-03 20:51 42.74440 25.97917 36220 ft 452 kts 300°
2026-05-03 20:52 42.77399 25.90367 36228 ft 452 kts 300°
2026-05-03 20:52 42.80372 25.82820 36240 ft 452 kts 301°
2026-05-03 20:52 42.81714 25.78942 36139 ft 457 kts 288°
2026-05-03 20:53 42.82099 25.74596 34947 ft 479 kts 262°
2026-05-03 20:53 42.80678 25.70415 30831 ft 508 kts 219°
2026-05-03 20:53 42.77264 25.69200 24965 ft 560 kts 163°
2026-05-03 20:53 42.74266 25.70941 28621 ft 376 kts 152°
2026-05-03 20:54 42.72843 25.71902 31822 ft 320 kts 151°
2026-05-03 20:54 42.68172 25.74468 32640 ft 344 kts 166°
2026-05-03 20:54 42.65735 25.74894 32422 ft 355 kts 177°
2026-05-03 20:55 42.63283 25.74490 32565 ft 360 kts 201°
2026-05-03 20:55 42.61161 25.72691 32602 ft 364 kts 228°
2026-05-03 20:55 42.59805 25.69839 32558 ft 369 kts 253°
2026-05-03 20:55 42.59476 25.66407 32559 ft 370 kts 279°
2026-05-03 20:56 42.60261 25.63117 32565 ft 369 kts 306°
2026-05-03 20:56 42.61997 25.60596 32575 ft 368 kts 328°
2026-05-03 20:56 42.66236 25.56438 32586 ft 386 kts 321°
2026-05-03 20:57 42.70227 25.51306 32597 ft 404 kts 318°
2026-05-03 20:57 42.74332 25.45859 32613 ft 421 kts 319°
2026-05-03 20:58 42.77953 25.41277 32627 ft 435 kts 320°
2026-05-03 20:58 42.82523 25.35659 32731 ft 447 kts 321°
2026-05-03 20:59 42.84831 25.32828 33068 ft 446 kts 321°
2026-05-03 20:59 42.87131 25.29997 33428 ft 445 kts 321°
2026-05-03 20:59 42.89429 25.27155 33804 ft 445 kts 321°
2026-05-03 20:59 42.91711 25.24319 34177 ft 444 kts 321°
2026-05-03 21:00 42.93986 25.21482 34490 ft 443 kts 321°
2026-05-03 21:00 42.95490 25.19606 34677 ft 442 kts 321°
2026-05-03 21:00 42.98527 25.15818 35023 ft 442 kts 321°
2026-05-03 21:00 43.00798 25.12981 35271 ft 442 kts 321°
2026-05-03 21:01 43.03065 25.10144 35517 ft 442 kts 321°
2026-05-03 21:01 43.05331 25.07303 35752 ft 442 kts 321°
2026-05-03 21:01 43.07598 25.04461 35980 ft 442 kts 321°
2026-05-03 21:01 43.09833 25.01652 36214 ft 442 kts 319°
2026-05-03 21:02 43.11900 24.98514 36349 ft 446 kts 309°
2026-05-03 21:02 43.13571 24.94914 36378 ft 450 kts 300°
2026-05-03 21:02 43.15989 24.86964 36391 ft 453 kts 295°
2026-05-03 21:03 43.18336 24.78963 36399 ft 453 kts 295°
2026-05-03 21:03 43.20693 24.70969 36410 ft 452 kts 296°
2026-05-03 21:04 43.23044 24.62959 36411 ft 452 kts 296°
2026-05-03 21:04 43.25381 24.54941 36424 ft 453 kts 296°
2026-05-03 21:05 43.27713 24.46911 36422 ft 453 kts 296°
2026-05-03 21:05 43.30040 24.38890 36423 ft 453 kts 296°
2026-05-03 21:06 43.32359 24.30854 36421 ft 453 kts 296°
2026-05-03 21:06 43.34674 24.22821 36420 ft 452 kts 296°
2026-05-03 21:07 43.36982 24.14786 36419 ft 452 kts 296°
2026-05-03 21:07 43.39281 24.06733 36419 ft 451 kts 296°
2026-05-03 21:08 43.41610 23.98787 36413 ft 450 kts 298°
2026-05-03 21:08 43.44141 23.90931 36407 ft 449 kts 299°
2026-05-03 21:09 43.46707 23.83103 36400 ft 448 kts 299°
2026-05-03 21:09 43.49230 23.75245 36396 ft 448 kts 299°
2026-05-03 21:10 43.51713 23.67379 36381 ft 447 kts 299°
2026-05-03 21:10 43.54183 23.59518 36372 ft 447 kts 299°
2026-05-03 21:11 43.56648 23.51659 36357 ft 446 kts 299°
2026-05-03 21:11 43.59111 23.43812 36343 ft 446 kts 299°
2026-05-03 21:12 43.61574 23.35970 36333 ft 445 kts 300°
2026-05-03 21:12 43.64017 23.28119 36322 ft 445 kts 300°
2026-05-03 21:13 43.66453 23.20274 36311 ft 444 kts 300°
2026-05-03 21:13 43.68864 23.12490 36301 ft 444 kts 300°
2026-05-03 21:14 43.71284 23.04649 36292 ft 443 kts 300°
2026-05-03 21:14 43.73698 22.96814 36281 ft 443 kts 300°
2026-05-03 21:15 43.76110 22.88983 36267 ft 442 kts 300°
2026-05-03 21:15 43.78508 22.81150 36261 ft 442 kts 300°
2026-05-03 21:16 43.80900 22.73321 36248 ft 441 kts 300°
2026-05-03 21:16 43.83291 22.65488 36244 ft 441 kts 299°
2026-05-03 21:17 43.85281 22.58927 36234 ft 441 kts 299°
2026-05-03 21:17 43.88034 22.49821 36218 ft 441 kts 299°
2026-05-03 21:18 43.90407 22.41997 36207 ft 439 kts 302°
2026-05-03 21:18 43.93699 22.35085 36193 ft 425 kts 316°
2026-05-03 21:19 43.97485 22.28767 36188 ft 426 kts 315°
2026-05-03 21:19 44.01252 22.22418 36192 ft 426 kts 315°
2026-05-03 21:20 44.05015 22.16059 36190 ft 426 kts 315°
2026-05-03 21:20 44.08777 22.09702 36198 ft 426 kts 315°
2026-05-03 21:21 44.12546 22.03330 36196 ft 426 kts 315°
2026-05-03 21:21 44.16308 21.96947 36195 ft 426 kts 315°
2026-05-03 21:22 44.20039 21.90596 36194 ft 426 kts 314°
2026-05-03 21:22 44.23788 21.84197 36198 ft 426 kts 314°
2026-05-03 21:23 44.27545 21.77797 36197 ft 426 kts 314°
2026-05-03 21:23 44.31299 21.71387 36197 ft 426 kts 314°
2026-05-03 21:24 44.35049 21.64961 36197 ft 427 kts 314°
2026-05-03 21:24 44.38785 21.58520 36197 ft 426 kts 314°
2026-05-03 21:25 44.42515 21.52078 36190 ft 426 kts 314°
2026-05-03 21:25 44.46248 21.45642 36187 ft 426 kts 314°
2026-05-03 21:26 44.49977 21.39203 36192 ft 425 kts 314°
2026-05-03 21:26 44.53693 21.32753 36181 ft 425 kts 314°
2026-05-03 21:27 44.57399 21.26295 36185 ft 425 kts 314°
2026-05-03 21:27 44.61103 21.19838 36183 ft 425 kts 314°
2026-05-03 21:28 44.64800 21.13379 36185 ft 424 kts 314°
2026-05-03 21:28 44.68496 21.06914 36182 ft 424 kts 314°
2026-05-03 21:29 44.72192 21.00440 36179 ft 424 kts 314°
2026-05-03 21:29 44.75876 20.93959 36181 ft 424 kts 314°
2026-05-03 21:30 44.79532 20.87508 36182 ft 424 kts 314°
2026-05-03 21:30 44.83208 20.81011 36182 ft 424 kts 313°
2026-05-03 21:31 44.86878 20.74508 36183 ft 424 kts 314°
2026-05-03 21:31 44.90496 20.68091 36185 ft 424 kts 313°
2026-05-03 21:32 44.94160 20.61576 36186 ft 424 kts 313°
2026-05-03 21:32 44.97823 20.55066 36200 ft 423 kts 313°
2026-05-03 21:33 45.01473 20.48545 36202 ft 423 kts 313°
2026-05-03 21:33 45.05110 20.42008 36204 ft 423 kts 313°
2026-05-03 21:34 45.08746 20.35469 36202 ft 423 kts 313°
2026-05-03 21:34 45.12385 20.28936 36202 ft 422 kts 313°
2026-05-03 21:35 45.16017 20.22397 36203 ft 422 kts 313°
2026-05-03 21:35 45.19637 20.15856 36197 ft 422 kts 313°
2026-05-03 21:36 45.23249 20.09302 36198 ft 421 kts 313°
2026-05-03 21:36 45.26855 20.02747 36198 ft 421 kts 313°
2026-05-03 21:37 45.30461 19.96184 36193 ft 421 kts 312°
2026-05-03 21:37 45.34118 19.89751 36187 ft 419 kts 315°
2026-05-03 21:38 45.37987 19.83565 36189 ft 419 kts 316°
2026-05-03 21:38 45.41898 19.77400 36189 ft 419 kts 316°
2026-05-03 21:39 45.45754 19.71187 36183 ft 419 kts 315°
2026-05-03 21:39 45.49583 19.64920 36183 ft 419 kts 315°
2026-05-03 21:40 45.53411 19.58654 36187 ft 419 kts 315°
2026-05-03 21:40 45.57246 19.52383 36183 ft 419 kts 315°
2026-05-03 21:41 45.61047 19.46157 36185 ft 419 kts 315°
2026-05-03 21:41 45.64862 19.39873 36181 ft 419 kts 315°
2026-05-03 21:42 45.68681 19.33583 36179 ft 418 kts 315°
2026-05-03 21:42 45.72495 19.27296 36179 ft 418 kts 315°
2026-05-03 21:43 45.76302 19.21001 36178 ft 418 kts 315°
2026-05-03 21:43 45.80102 19.14699 36177 ft 418 kts 315°
2026-05-03 21:44 45.83898 19.08388 36173 ft 418 kts 314°
2026-05-03 21:44 45.87683 19.02077 36177 ft 417 kts 314°
2026-05-03 21:45 45.91463 18.95748 36175 ft 417 kts 314°
2026-05-03 21:45 45.95205 18.89376 36170 ft 418 kts 313°
2026-05-03 21:46 45.98227 18.83954 36169 ft 418 kts 312°
2026-05-03 21:46 46.01823 18.77386 36169 ft 418 kts 312°
2026-05-03 21:47 46.05422 18.70823 36166 ft 418 kts 312°
2026-05-03 21:47 46.09039 18.64280 36167 ft 417 kts 312°
2026-05-03 21:48 46.12653 18.57734 36165 ft 417 kts 312°
2026-05-03 21:48 46.16258 18.51179 36165 ft 417 kts 312°
2026-05-03 21:49 46.19860 18.44613 36163 ft 417 kts 312°
2026-05-03 21:49 46.23461 18.38031 36163 ft 417 kts 311°
2026-05-03 21:50 46.27057 18.31443 36161 ft 417 kts 311°
2026-05-03 21:50 46.30649 18.24851 36157 ft 417 kts 311°
2026-05-03 21:51 46.34236 18.18253 36150 ft 417 kts 311°
2026-05-03 21:51 46.37818 18.11649 36148 ft 417 kts 311°
2026-05-03 21:52 46.41398 18.05032 36144 ft 417 kts 311°
2026-05-03 21:52 46.44973 17.98406 36144 ft 417 kts 311°
2026-05-03 21:53 46.48548 17.91761 36142 ft 417 kts 311°
2026-05-03 21:53 46.52116 17.85113 36141 ft 417 kts 310°
2026-05-03 21:54 46.55657 17.78496 36139 ft 417 kts 310°
2026-05-03 21:54 46.59239 17.71783 36134 ft 418 kts 310°
2026-05-03 21:55 46.62798 17.65178 36133 ft 417 kts 311°
2026-05-03 21:55 46.66502 17.58675 36133 ft 417 kts 312°
2026-05-03 21:56 46.70236 17.52203 36135 ft 417 kts 312°
2026-05-03 21:56 46.73947 17.45699 36135 ft 417 kts 311°
2026-05-03 21:57 46.77634 17.39161 36137 ft 417 kts 311°
2026-05-03 21:57 46.81320 17.32606 36139 ft 417 kts 311°
2026-05-03 21:58 46.85003 17.26048 36135 ft 418 kts 311°
2026-05-03 21:58 46.88686 17.19471 36127 ft 418 kts 311°
2026-05-03 21:59 46.92360 17.12880 36124 ft 418 kts 311°
2026-05-03 21:59 46.96038 17.06281 36123 ft 419 kts 310°
2026-05-03 22:00 46.99724 16.99673 36113 ft 419 kts 310°
2026-05-03 22:00 47.03378 16.93091 36111 ft 419 kts 310°
2026-05-03 22:01 47.07055 16.86454 36106 ft 419 kts 310°
2026-05-03 22:01 47.10730 16.79807 36106 ft 419 kts 310°
2026-05-03 22:02 47.14398 16.73141 36111 ft 419 kts 310°
2026-05-03 22:02 47.18068 16.66476 36111 ft 420 kts 310°
2026-05-03 22:03 47.21738 16.59790 36106 ft 420 kts 310°
2026-05-03 22:03 47.25392 16.53093 36103 ft 420 kts 310°
2026-05-03 22:04 47.29025 16.46437 36109 ft 420 kts 310°
2026-05-03 22:04 47.32732 16.39799 36116 ft 420 kts 310°
2026-05-03 22:05 47.36469 16.33186 36110 ft 420 kts 310°
2026-05-03 22:05 47.40194 16.26562 36112 ft 420 kts 310°
2026-05-03 22:06 47.43901 16.19906 36100 ft 420 kts 310°
2026-05-03 22:06 47.47600 16.13234 36108 ft 420 kts 310°
2026-05-03 22:07 47.51301 16.06555 36107 ft 420 kts 310°
2026-05-03 22:07 47.55005 15.99884 36106 ft 420 kts 310°
2026-05-03 22:08 47.58699 15.93190 36093 ft 419 kts 310°
2026-05-03 22:08 47.62380 15.86478 36100 ft 420 kts 310°
2026-05-03 22:09 47.66065 15.79765 36100 ft 420 kts 310°
2026-05-03 22:10 47.71586 15.69692 36091 ft 419 kts 310°
2026-05-03 22:10 47.75252 15.62971 36095 ft 418 kts 310°
2026-05-03 22:11 47.78906 15.56238 36085 ft 418 kts 309°
2026-05-03 22:11 47.82531 15.49566 36082 ft 417 kts 309°
2026-05-03 22:12 47.86174 15.42840 36066 ft 417 kts 309°
2026-05-03 22:12 47.89819 15.36104 36045 ft 418 kts 309°
2026-05-03 22:13 47.93465 15.29348 36035 ft 418 kts 309°
2026-05-03 22:13 47.97111 15.22570 36019 ft 419 kts 309°
2026-05-03 22:14 48.00757 15.15767 36008 ft 420 kts 309°
2026-05-03 22:14 48.04408 15.08940 36008 ft 420 kts 309°
2026-05-03 22:15 48.08056 15.02107 35996 ft 421 kts 309°
2026-05-03 22:15 48.11707 14.95247 35993 ft 421 kts 309°
2026-05-03 22:16 48.15353 14.88374 35984 ft 422 kts 308°
2026-05-03 22:16 48.18999 14.81487 35982 ft 422 kts 308°
2026-05-03 22:17 48.22622 14.74630 35974 ft 422 kts 308°
2026-05-03 22:17 48.26264 14.67706 35969 ft 423 kts 308°
2026-05-03 22:18 48.29932 14.60724 35962 ft 423 kts 308°
2026-05-03 22:18 48.33555 14.53821 35959 ft 424 kts 308°
2026-05-03 22:19 48.37201 14.46864 35956 ft 424 kts 308°
2026-05-03 22:19 48.40840 14.39877 35958 ft 424 kts 308°
2026-05-03 22:20 48.44475 14.32879 35959 ft 424 kts 308°
2026-05-03 22:20 48.48107 14.25874 35961 ft 424 kts 308°
2026-05-03 22:21 48.51737 14.18853 35963 ft 425 kts 307°
2026-05-03 22:21 48.55365 14.11819 35969 ft 425 kts 307°
2026-05-03 22:22 48.58996 14.04766 35973 ft 425 kts 307°
2026-05-03 22:22 48.62617 13.97708 35972 ft 425 kts 307°
2026-05-03 22:23 48.66239 13.90638 35972 ft 425 kts 307°
2026-05-03 22:23 48.69833 13.83616 35977 ft 425 kts 307°
2026-05-03 22:24 48.73444 13.76525 35982 ft 425 kts 307°
2026-05-03 22:24 48.77038 13.69390 35981 ft 425 kts 306°
2026-05-03 22:25 48.80465 13.62094 35982 ft 425 kts 304°
2026-05-03 22:25 48.83810 13.54704 35979 ft 425 kts 304°
2026-05-03 22:26 48.87163 13.47317 35982 ft 425 kts 304°
2026-05-03 22:26 48.90539 13.39950 35986 ft 425 kts 304°
2026-05-03 22:27 48.93921 13.32582 35987 ft 425 kts 304°
2026-05-03 22:27 48.97298 13.25208 35992 ft 425 kts 304°
2026-05-03 22:28 49.00664 13.17817 35982 ft 425 kts 304°
2026-05-03 22:28 49.03995 13.10466 35987 ft 424 kts 304°
2026-05-03 22:29 49.07347 13.03055 35989 ft 424 kts 304°
2026-05-03 22:29 49.10690 12.95631 35989 ft 424 kts 304°
2026-05-03 22:30 49.14027 12.88202 35995 ft 424 kts 303°
2026-05-03 22:30 49.17366 12.80766 35991 ft 424 kts 303°
2026-05-03 22:31 49.20700 12.73321 35991 ft 424 kts 303°
2026-05-03 22:31 49.24026 12.65865 35985 ft 424 kts 303°
2026-05-03 22:32 49.25128 12.63392 35992 ft 424 kts 303°